Preview of NWS' New Version of Forecast
This preview is not operational and should not be used for support decisions.
Latest weather observations around

Philadelphia, Philadelphia International Airport (KPHL)

Using International System of Units (Switch to English Units)
Date/ Time (EDT) Wind (kph) Vis. (km) Weather Sky Cond. Temp (°C) Rel. Humidity Wind Chill (°C) Heat Index (°C) Pressure Precip. (cm)
Air Dwpt 6 hour Altimeter (hPa) Sea level (hPa) 1 hr 3 hr 6 hr
Max Min
Sep 20 15:54 SW 15 16.09 Partly Cloudy SCT300 25 8     35%   24 1022.7 1022.4      
Sep 20 14:54 SW 18 16.09 Mostly Cloudy BKN300 24 9     37%   24 1023.4 1023.1      
Sep 20 13:54 WSW 17 16.09 Mostly Cloudy BKN300 24 8     37%   23 1023.7 1023.7      
Sep 20 12:54 SSW 17 16.09 Mostly Cloudy BKN300 22 9     43%   22 1024.7 1024.5      
Sep 20 11:54 WSW 15 16.09 Mostly Cloudy BKN300 22 8     42%   21 1025.4 1025.4      
Sep 20 10:54 SW 17 16.09 Mostly Cloudy BKN300 20 9     50%     1026.1 1026.1      
Sep 20 09:54 WSW 11 16.09 Partly Cloudy SCT300 18 11     65%     1026.8 1026.7      
Sep 20 08:54 W 8 16.09 Partly Cloudy SCT300 16 12     75%     1027.1 1026.9      
Sep 20 07:54 W 5 16.09 Partly Cloudy SCT300 14 11     81%     1026.8 1026.5      
Sep 20 06:54 WSW 8 16.09 Partly Cloudy FEW100 SCT300 13 10     83%     1026.4 1026.2      
Sep 20 05:54 WSW 9 16.09 Partly Cloudy SCT300 13 9     77%     1025.7 1025.8      
Sep 20 04:54 W 9 16.09 Partly Cloudy SCT280 13 9     77%     1025.7 1025.7      
Sep 20 03:54 W 8 16.09 Mostly Cloudy BKN280 13 9     77%     1025.7 1025.5      
Sep 20 02:54 WSW 5 16.09 Partly Cloudy SCT280 13 11     84%     1025.7 1025.5      
Sep 20 01:54 SW 5 16.09 Clear CLR 14 11     81%     1025.7 1025.7      
Sep 20 00:54 SSW 11 16.09 Mostly Clear FEW280 15 10     72%     1025.7 1025.8      
Sep 19 23:54 SW 9 16.09 Mostly Clear FEW280 14 10     75%     1026.1 1026.1      
Sep 19 22:54 SSE 9 16.09 Clear CLR 14 10     75%     1026.1 1026      
Sep 19 21:54 SSE 9 16.09 Clear CLR 16 10     69%     1026.1 1025.9      
Sep 19 20:54 SSE 5 16.09 Clear CLR 18 8     52%     1026.1 1025.9      
Sep 19 19:54 S 5 16.09 Mostly Clear FEW250 19 7     47%     1026.1 1026      
Sep 19 18:54 SE 8 16.09 Mostly Clear FEW250 20 6     39%     1026.1 1026.1      
Sep 19 17:54 ESE 5 16.09 Mostly Clear FEW250 21 6     36%     1026.1 1025.9      
Sep 19 16:54 9 16.09 Mostly Clear FEW300 22 6     35%   21 1026.1 1026.1      
Sep 19 15:54 SSE 9 16.09 Mostly Clear FEW300 22 6     35%   21 1026.4 1026.2      
Sep 19 14:54 NNE 9 16.09 Mostly Clear FEW050 FEW300 21 5     35%     1026.8 1026.6      
Sep 19 13:54 Calm 16.09 Mostly Clear FEW050 FEW300 20 6     39%     1027.1 1027.1      
Sep 19 12:54 8 16.09 Mostly Clear FEW050 FEW300 20 6     40%     1027.4 1027.5      
Sep 19 11:54 ESE 9 16.09 Mostly Clear FEW050 FEW300 19 6     43%     1028.1 1028.1      
Sep 19 10:54 E 9 16.09 Partly Cloudy FEW042 SCT300 18 7     48%     1028.5 1028.4      
Sep 19 09:54 ENE 9 16.09 Mostly Clear FEW300 17 6     50%     1028.8 1028.6      
Sep 19 08:54 NE 13 16.09 Mostly Clear FEW300 15 6     53%     1028.1 1028.2      
Sep 19 07:54 NE 15 16.09 Mostly Clear FEW300 14 6     57%     1027.8 1027.6      
Sep 19 06:54 NE 13 16.09 Clear CLR 12 5     63%     1027.4 1027.4      
Sep 19 05:54 NE 11 16.09 Clear CLR 12 4     61%     1027.1 1026.8      
Sep 19 04:54 NE 15 16.09 Clear CLR 13 7     66%     1026.8 1026.8      
Sep 19 03:54 ENE 11 16.09 Clear CLR 13 7     67%     1026.8 1026.5      
Sep 19 02:54 NE 13 16.09 Clear CLR 14 7     64%     1026.1 1025.9      
Sep 19 01:54 NE 9 16.09 Clear CLR 13 8     69%     1026.4 1026.3      
Sep 19 00:54 NE 9 16.09 Mostly Clear FEW280 14 8     67%     1026.1 1026.1      
Sep 18 23:54 E 13 16.09 Clear CLR 16 9     64%     1026.4 1026.2      
Sep 18 22:54 E 11 16.09 Clear CLR 16 9     64%     1026.1 1026      
Sep 18 21:54 E 13 16.09 Clear CLR 16 9     64%     1025.7 1025.5      
Sep 18 20:54 ESE 11 16.09 Mostly Clear FEW250 17 10     65%     1025.1 1025      
Sep 18 19:54 ESE 13 16.09 Partly Cloudy SCT250 18 11     61%     1024.4 1024.2      
Sep 18 18:54 E 18 16.09 Mostly Cloudy SCT065 BKN250 21 8     45%     1023.7 1023.4      
Sep 18 17:54 NE 11 16.09 Partly Cloudy SCT060 SCT250 22 8     41%   21 1023 1022.9      
Sep 18 16:54 ENE 11 16.09 Partly Cloudy SCT060 SCT250 23 7     37%   22 1023 1022.7      
Sep 18 15:54 NE 17 16.09 Partly Cloudy SCT055 24 8     36%   23 1023 1022.8      
Sep 18 14:54 E 8 16.09 Partly Cloudy SCT055 24 8     36%   23 1023 1023      
Sep 18 13:54 NE 15 16.09 Partly Cloudy SCT055 23 9     40%   23 1023 1022.9      
Sep 18 12:54 NE 18 16.09 Partly Cloudy SCT055 23 9     41%   23 1023.4 1023.2      
Sep 18 11:54 NNE 13 16.09 Mostly Cloudy SCT038 BKN050 23 11     45%   23 1023.7 1023.4      
Sep 18 09:54 ENE 15 16.09 Partly Cloudy SCT028 20 11     57%     1023.7 1023.6      
Sep 18 08:54 NE 15 16.09 Partly Cloudy SCT040 18 10     60%     1023.4 1023.3      
Sep 18 07:54 NNE 8 16.09 Mostly Clear FEW022 FEW037 16 10     67%     1023 1022.9      
Sep 18 06:54 NNW 8 16.09 Mostly Clear FEW037 14 9     72%     1022.4 1022.3      
Sep 18 05:54 N 8 16.09 Mostly Clear FEW037 16 10     69%     1021.7 1021.7      
Sep 18 04:54 N 5 16.09 Clear CLR 15 10     72%     1021.3 1021.4      
Sep 18 03:54 Calm 16.09 Clear CLR 16 11     75%     1021.3 1021.3      
Sep 18 02:54 NNW 9 16.09 Clear CLR 16 12     78%     1021.3 1021.1      
Sep 18 01:54 Calm 16.09 Clear CLR 16 12     75%     1021.3 1021.1      
Sep 18 00:54 SE 5 16.09 Clear CLR 17 12     72%     1021.3 1021.1      
Sep 17 23:54 SE 5 16.09 Clear CLR 18 12     70%     1021 1020.8      
Sep 17 22:54 Calm 16.09 Clear   17 11     67%     1020.7 1020.7      
Sep 17 21:54 Calm 16.09 Clear CLR 19 11     59%     1020.7 1020.4      
Sep 17 20:54 SE 13 16.09 Clear CLR 21 9     47%     1020.3 1020.2      
Sep 17 19:54 NE 8 16.09 Mostly Clear FEW250 23 7     37%   22 1019.7 1019.5      
Sep 17 18:54 N 21 16.09 Mostly Clear FEW280 24 6     32%   23 1019.3 1019      
Sep 17 17:54 N 18 16.09 Mostly Clear FEW060 FEW280 26 7     31%   25 1018.6 1018.5      
Sep 17 16:54 NNE 13 16.09 Mostly Clear FEW060 FEW280 26 6     28%   25 1018.6 1018.5      
Sep 17 15:54 Calm 16.09 Mostly Clear FEW060 FEW300 26 7     29%   26 1019 1018.7      
May 14 16:54 SSW 15 16.09 Partly Cloudy FEW025 SCT230 23 17     68%   23 1014.6 1014.3      
May 14 12:54 5 11.27 Cloudy OVC014 18 14     78%     1016.9 1016.7      
May 13 16:54 SSE 9 16.09 Cloudy FEW007 OVC010 13 12     90%     1019.3 1019.2   0  
May 13 11:54 E 17 14.48 Cloudy OVC009 13 11     89%     1021 1020.9      
May 13 01:54 ENE 15 8.05 Fog/Mist OVC009 14 13     93%     1019.3 1019.1     2
May 12 11:15 9 14.48 Cloudy OVC010 16 13     83%     1019.7        
May 12 09:54 E 9 16.09 Cloudy OVC009 15 13     90%     1019.7 1019.5      
May 12 07:54 ENE 22 9.66 Fog/Mist BKN008 OVC012 13 12     93%     1019.7 1019.6     2
May 12 05:54   4.83 Thunderstorms and Rain and Fog/Mist FEW018 BKN032 OVC046 12 11     93%     1019.3 1019.2 1    
May 12 03:51   6.44 Heavy Rain SCT035 OVC055 14 10     77%     1021   0    
May 12 02:54 NNE 15 16.09 Cloudy BKN060 OVC100 16 8     60%     1019.3 1019.1      
May 12 00:54 E 8 16.09 Cloudy FEW041 BKN075 OVC095 16 8     60%     1019.7 1019.7 0    
May 11 15:54 5 16.09 Partly Cloudy FEW070 FEW100 SCT260 24 6     31%   24 1016.3 1016.1      
May 11 12:54 WNW 21 16.09 Partly Cloudy SCT055 SCT250 23 9     41%   23 1016.3 1016.1      
Jun 10 21:54 SSW 9 16.09 Mostly Clear FEW070 26 14     50%   26 1017.6 1017.4      
Jun 10 15:54   16.09 Mostly Clear FEW065 31 12     31%   29 1015.6 1015.6      
Jun 10 11:54 SW 15 16.09 Mostly Clear FEW150 FEW280 28 13     40%   27 1016.9 1016.8      
Jun 10 08:54 WSW 9 16.09 Mostly Cloudy FEW060 BKN120 BKN280 23 13     55%   23 1016.9 1016.8      
Jun 08 08:54 9 16.09 Clear   18 11     63%     1016.3 1016.3      
Jun 07 16:54 ENE 8 16.09 Cloudy OVC047 18 9     54%     1016.6 1016.3      
Jun 07 09:37 ENE 15 16.09 Cloudy BKN023 OVC040 14 8     69%     1016.3        
Jun 06 06:32 NE 13 3.22 Rain and Fog/Mist SCT004 BKN012 OVC031 16 15     93%     1005.8   0